Simultaneous Nadir Overpasses (SNOs) Predictions

Prediction of SNOs between AQUA and TERRA Satellite Orbit:

Table of predicted SNOs for the next 14.0 days since TLE Epoch: 8/21/2023
Index Date (AQUA) Time (AQUA) Lat,Lon (AQUA) SZA (AQUA ) Date (TERRA) Time (TERRA) Lat,Lon (TERRA) SZA (TERRA ) Distance(km) Time Diff (sec)
1 09/03/2023 06:23:10 -74.31, -98.56 113.39 09/03/2023 06:24:14 -74.25, -95.40 113.46 95.29 64
2 09/03/2023 07:12:32 74.18, 69.41 66.49 09/03/2023 07:13:38 74.12, 71.96 66.42 77.81 66
3 09/03/2023 08:01:55 -74.14,-122.86 113.54 09/03/2023 08:03:01 -74.11,-120.41 113.58 74.42 66
4 09/03/2023 08:51:18 74.06, 44.98 66.40 09/03/2023 08:52:25 73.98, 46.95 66.30 60.94 67
5 09/03/2023 09:40:40 -73.97,-147.17 113.69 09/03/2023 09:41:48 -73.97,-145.42 113.70 53.59 68
6 09/03/2023 10:30:03 73.89, 20.67 66.25 09/03/2023 10:31:12 73.83, 21.95 66.18 39.90 69
7 09/03/2023 11:19:26 -73.85,-171.60 113.78 09/03/2023 11:20:36 -73.77,-170.53 113.87 34.21 70
8 09/03/2023 12:08:48 73.72, -3.65 66.10 09/03/2023 12:09:59 73.69, -3.05 66.06 18.86 71
9 09/03/2023 12:58:11 -73.68, 164.08 113.93 09/03/2023 12:59:23 -73.62, 164.47 113.99 13.74 72
10 09/03/2023 13:47:34 73.60, -28.08 66.00 09/03/2023 13:48:45 73.59, -27.93 65.99 4.73 71
11 09/03/2023 14:36:57 -73.56, 139.64 114.03 09/03/2023 14:38:08 -73.58, 139.70 114.01 2.98 71
12 09/03/2023 15:26:21 73.53, -52.64 65.95 09/03/2023 15:27:30 73.55, -52.70 65.98 3.39 69
13 09/03/2023 16:15:45 -73.55, 114.98 114.02 09/03/2023 16:16:53 -73.54, 114.93 114.02 1.52 68
14 09/03/2023 17:05:10 73.56, -77.42 66.02 09/03/2023 17:06:14 73.56, -77.37 66.01 1.58 64
15 09/03/2023 17:54:33 -73.53, 90.31 114.01 09/03/2023 17:55:37 -73.55, 90.27 113.99 2.93 64
16 09/03/2023 18:43:58 73.55,-102.08 66.02 09/03/2023 18:44:58 73.57,-102.03 66.05 3.40 60
17 09/03/2023 19:33:22 -73.57, 65.53 113.95 09/03/2023 19:34:21 -73.56, 65.61 113.95 2.41 59
18 09/03/2023 20:22:46 73.53,-126.75 66.03 09/03/2023 20:23:43 73.53,-126.80 66.03 1.55 57
19 09/03/2023 21:12:10 -73.55, 40.87 113.94 09/03/2023 21:13:06 -73.52, 40.84 113.97 3.03 56
20 09/03/2023 22:01:34 73.52,-151.41 66.04 09/03/2023 22:02:27 73.54,-151.46 66.07 3.42 53
21 09/03/2023 22:50:58 -73.53, 16.20 113.93 09/03/2023 22:51:50 -73.53, 16.18 113.93 0.71 52
22 09/03/2023 23:40:23 73.55,-176.19 66.11 09/03/2023 23:41:11 73.56,-176.12 66.11 2.35 48
23 09/04/2023 00:29:46 -73.52, -8.47 113.92 09/04/2023 00:30:34 -73.55, -8.48 113.89 3.19 48
24 09/04/2023 01:19:10 73.54, 159.14 66.11 09/04/2023 01:19:55 73.51, 159.11 66.09 2.67 45
25 09/04/2023 02:08:34 -73.55, -33.25 113.86 09/04/2023 02:09:17 -73.56, -33.14 113.86 3.20 43
26 09/04/2023 02:57:58 73.52, 134.47 66.12 09/04/2023 02:58:39 73.53, 134.45 66.13 0.94 41
27 09/04/2023 03:47:22 -73.54, -57.91 113.85 09/04/2023 03:48:02 -73.52, -57.91 113.87 2.44 40



Historial Predications of SNOs between AQUA and TERRA
